sat.trackr.live / text

‹ back to catalog

STARLINK-4140

NORAD 53259 · 2022-086T

PAYLOAD ACTIVE UNKNOWN

§ Identity

Operator
Country
US
Launch date
2022-07-24
Launch site
AFETR
Launch vehicle
Mass (kg)
RCS (m²)

Purposes: comms

External: N2YO · Heavens-Above · Gunter

§ Orbital elements

Epoch: 2026-09-20T01:51:58.502016Z

Period
94.01 min
Inclination
53.1625°
Eccentricity
0.0000881
Mean motion
15.31700734 rev/d
Perigee alt
470.1 km
Apogee alt
471.3 km
Semi-major
6,848.9 km
B*
2.4488e-5
RAAN
35.7700°
Arg perigee
92.0819°
Mean anomaly
268.0284°
Rev number
23,048

§ Raw data

STARLINK-41401 53259U 22086T   26263.07776044  .00000395  00000+0  24488-4 0  99922 53259  53.1625  35.7700 0000881  92.0819 268.0284 15.31700734230484

JSON: /api/v1/satellites/53259 · /tle

For live sub-satellite position, see the globe view (requires WebGL).

§ Visibility from observer

Set your observer location to see the next 7 days of passes ≥ 10°. The values pass through the URL so the page stays shareable.

No JS? Fill the form by hand. The geolocation button needs JavaScript.